CW7539 Weather Reports


time (UTC)temp
C
wind
direction
speed
KPH
gust
KPH
rain 1hr
cm
rain 24hr
cm
rain mn
cm
humidity
%
barometer
mb
20260506024558 22 332 1.6 6.4 0.00 0.05 0.05 53 1008.9
20260506024032 22 103 0.0 8.0 0.00 0.05 0.05 53 1009.0
20260506023536 22 76 1.6 11.3 0.00 0.05 0.05 53 1009.0
20260506023045 22 44 1.6 11.3 0.00 0.05 0.05 52 1009.0
20260506022532 22 266 1.6 11.3 0.00 0.05 0.05 52 1009.0
20260506022034 22 332 1.6 9.7 0.00 0.05 0.05 52 1008.9
20260506021601 22 311 1.6 9.7 0.00 0.05 0.05 52 1008.9
20260506021033 22 115 1.6 14.5 0.00 0.05 0.05 52 1008.9
20260506020533 22 101 3.2 14.5 0.00 0.05 0.05 53 1008.9
20260506020040 22 11 1.6 8.0 0.00 0.05 0.05 53 1008.8
20260506015532 22 0 1.6 8.0 0.00 0.05 0.05 52 1008.8
20260506015034 22 0 0.0 9.7 0.00 0.05 0.05 53 1008.8
20260506014545 22 0 1.6 9.7 0.00 0.05 0.05 52 1008.6
20260506014040 22 167 1.6 9.7 0.00 0.05 0.05 52 1008.7
20260506013532 22 0 1.6 11.3 0.00 0.05 0.05 51 1008.5
20260506013055 22 113 3.2 11.3 0.00 0.05 0.05 51 1008.4
20260506012533 22 150 3.2 11.3 0.00 0.05 0.05 51 1008.3
20260506012033 22 103 1.6 6.4 0.00 0.05 0.05 51 1008.3
20260506011601 22 87 0.0 4.8 0.00 0.05 0.05 51 1008.2
20260506011033 22 0 0.0 4.8 0.00 0.05 0.05 49 1008.3
20260506010532 23 79 0.0 4.8 0.00 0.05 0.05 49 1008.2
20260506010054 23 0 1.6 11.3 0.00 0.05 0.05 48 1008.1
20260506005533 23 164 1.6 11.3 0.00 0.05 0.05 47 1008.1
20260506005032 23 88 3.2 11.3 0.00 0.05 0.05 47 1008.1
20260506004546 23 103 1.6 11.3 0.00 0.05 0.05 47 1008.0
20260506004033 23 77 1.6 8.0 0.00 0.05 0.05 46 1008.0
20260506003535 23 98 1.6 8.0 0.00 0.05 0.05 47 1007.9
20260506003105 23 139 1.6 8.0 0.00 0.05 0.05 46 1007.8
20260506002535 23 213 1.6 8.0 0.00 0.05 0.05 46 1007.7
20260506002032 23 197 1.6 8.0 0.00 0.05 0.05 45 1007.6
20260506001550 23 153 1.6 8.0 0.00 0.05 0.05 45 1007.7
20260506001034 24 345 1.6 6.4 0.00 0.05 0.05 44 1007.6
20260506000533 24 0 1.6 6.4 0.00 0.05 0.05 44 1007.6
20260506000049 24 30 1.6 9.7 0.00 0.05 0.05 43 1007.6
20260505235535 24 330 1.6 11.3 0.00 0.05 0.05 43 1007.6
20260505235035 25 61 1.6 11.3 0.00 0.05 0.05 43 1007.4
20260505234545 25 0 1.6 11.3 0.00 0.05 0.05 43 1007.5
20260505234034 25 311 3.2 16.1 0.00 0.05 0.05 43 1007.4
20260505233534 25 148 3.2 16.1 0.00 0.05 0.05 42 1007.4
20260505233046 25 70 1.6 14.5 0.00 0.05 0.05 43 1007.5
20260505232532 25 196 3.2 14.5 0.00 0.05 0.05 42 1007.3
20260505232041 25 189 4.8 14.5 0.00 0.05 0.05 42 1007.4
20260505231557 25 121 1.6 11.3 0.00 0.05 0.05 43 1007.3
20260505231034 25 101 1.6 9.7 0.00 0.05 0.05 43 1007.2
20260505230533 26 341 1.6 9.7 0.00 0.05 0.05 42 1007.2
20260505230050 26 138 3.2 12.9 0.00 0.05 0.05 41 1007.1
20260505225536 26 223 4.8 19.3 0.00 0.05 0.05 39 1007.1
20260505225033 26 237 4.8 19.3 0.00 0.05 0.05 40 1007.1
20260505224549 26 10 3.2 19.3 0.00 0.05 0.05 40 1007.0
20260505224036 26 164 4.8 19.3 0.00 0.05 0.05 40 1006.9
20260505223533 26 103 6.4 25.7 0.00 0.05 0.05 41 1007.2
20260505223047 26 276 4.8 25.7 0.00 0.05 0.05 41 1007.0
20260505222533 26 188 6.4 22.5 0.00 0.05 0.05 40 1007.0
20260505222033 26 261 4.8 19.3 0.00 0.05 0.05 41 1006.9
20260505221543 26 292 6.4 19.3 0.00 0.05 0.05 41 1006.8
20260505221031 26 103 3.2 24.1 0.00 0.05 0.05 41 1006.8
20260505220533 26 135 4.8 24.1 0.00 0.05 0.05 41 1006.8
20260505220043 26 182 6.4 17.7 0.00 0.05 0.05 39 1006.9
20260505215534 27 32 4.8 17.7 0.00 0.05 0.05 39 1007.0
20260505215033 27 99 6.4 14.5 0.00 0.05 0.05 40 1006.8
20260505214606 27 297 4.8 24.1 0.00 0.05 0.05 39 1007.0
20260505214031 27 359 6.4 24.1 0.00 0.05 0.05 39 1006.8
20260505213531 27 51 4.8 19.3 0.00 0.05 0.05 38 1006.8
20260505213046 27 114 8.0 19.3 0.00 0.05 0.05 39 1006.9
20260505212533 27 198 3.2 19.3 0.00 0.05 0.05 39 1006.9
20260505212033 27 143 6.4 19.3 0.00 0.05 0.05 41 1006.7
20260505211549 27 102 4.8 24.1 0.00 0.05 0.05 39 1006.7
20260505211033 27 220 9.7 24.1 0.00 0.05 0.05 39 1006.7
20260505210532 28 79 4.8 19.3 0.00 0.05 0.05 37 1006.6
20260505210047 28 259 6.4 20.9 0.00 0.05 0.05 38 1006.6
20260505205532 28 174 4.8 20.9 0.00 0.05 0.05 38 1006.6
20260505205033 28 221 3.2 17.7 0.00 0.05 0.05 40 1006.6
20260505204547 28 277 8.0 30.6 0.00 0.05 0.05 38 1006.4
20260505204032 28 115 8.0 30.6 0.00 0.05 0.05 36 1006.4
20260505203532 28 243 4.8 24.1 0.00 0.05 0.05 37 1006.3
20260505203049 28 106 4.8 24.1 0.00 0.05 0.05 38 1006.5
20260505202533 28 254 6.4 24.1 0.00 0.05 0.05 38 1006.5
20260505202033 28 200 4.8 20.9 0.00 0.05 0.05 39 1006.4
20260505201546 28 103 4.8 14.5 0.00 0.05 0.05 38 1006.6
20260505201032 28 114 6.4 24.1 0.00 0.05 0.05 37 1006.5
20260505200532 28 153 6.4 24.1 0.00 0.05 0.05 38 1006.8
20260505200056 28 264 6.4 24.1 0.00 0.05 0.05 38 1006.7
20260505195534 28 167 4.8 24.1 0.00 0.05 0.05 36 1006.6
20260505195036 28 290 6.4 24.1 0.00 0.05 0.05 37 1006.6
20260505194541 28 139 8.0 24.1 0.00 0.05 0.05 37 1006.7
20260505194032 28 141 6.4 20.9 0.00 0.05 0.05 38 1006.8
20260505193532 28 166 6.4 20.9 0.00 0.05 0.05 36 1006.7
20260505193050 28 170 6.4 14.5 0.00 0.05 0.05 37 1006.7
20260505192533 28 293 4.8 14.5 0.00 0.05 0.05 35 1006.7
20260505192032 28 145 3.2 22.5 0.00 0.05 0.05 36 1006.7
20260505191546 28 152 8.0 22.5 0.00 0.05 0.05 35 1006.7
20260505191032 28 149 4.8 22.5 0.00 0.05 0.05 37 1006.7
20260505190534 28 91 6.4 22.5 0.00 0.05 0.05 37 1006.8
20260505190047 28 248 6.4 20.9 0.00 0.05 0.05 36 1007.2
20260505185531 28 61 6.4 20.9 0.00 0.05 0.05 37 1007.0
20260505185035 28 172 6.4 30.6 0.00 0.05 0.05 39 1007.1
20260505184548 28 349 6.4 30.6 0.00 0.05 0.05 37 1007.1
20260505184033 28 58 8.0 27.4 0.00 0.05 0.05 37 1007.5
20260505183534 28 260 4.8 14.5 0.00 0.05 0.05 40 1007.3
20260505183057 28 61 1.6 19.3 0.00 0.05 0.05 39 1007.4
20260505182533 28 288 6.4 19.3 0.00 0.05 0.05 38 1007.4
20260505182035 28 186 4.8 19.3 0.00 0.05 0.05 40 1007.4
20260505181546 28 112 4.8 25.7 0.00 0.05 0.05 38 1007.5
20260505181031 28 254 6.4 25.7 0.00 0.05 0.05 37 1007.7
20260505180533 28 129 4.8 25.7 0.00 0.05 0.05 41 1007.7
20260505180051 27 321 6.4 17.7 0.00 0.05 0.05 40 1007.9
20260505175533 28 271 6.4 16.1 0.00 0.05 0.05 40 1007.9
20260505175032 28 120 3.2 16.1 0.00 0.05 0.05 41 1007.9
20260505174557 27 302 3.2 16.1 0.00 0.05 0.05 40 1007.9
20260505174033 28 84 4.8 16.1 0.00 0.05 0.05 43 1008.0
20260505173534 27 94 4.8 19.3 0.00 0.05 0.05 42 1008.0
20260505173041 27 349 6.4 19.3 0.00 0.05 0.05 45 1008.0
20260505172535 27 72 3.2 12.9 0.00 0.05 0.05 46 1008.1
20260505172033 27 281 3.2 16.1 0.00 0.05 0.05 42 1008.1
20260505171549 27 114 4.8 16.1 0.00 0.05 0.05 44 1008.0
20260505171033 27 227 4.8 17.7 0.00 0.05 0.05 46 1008.1
20260505170531 27 141 6.4 17.7 0.00 0.05 0.05 46 1008.2
20260505170046 27 232 4.8 11.3 0.00 0.05 0.05 46 1008.4
20260505165533 27 50 3.2 19.3 0.00 0.05 0.05 46 1008.4
20260505165032 27 253 6.4 19.3 0.00 0.05 0.05 43 1008.4
20260505164541 27 253 3.2 19.3 0.00 0.05 0.05 49 1008.6
20260505164032 26 295 1.6 19.3 0.00 0.05 0.05 46 1008.7
20260505163532 26 22 8.0 19.3 0.00 0.05 0.05 44 1008.7
20260505163041 26 278 3.2 19.3 0.00 0.05 0.05 45 1008.8
20260505162532 26 94 6.4 19.3 0.00 0.05 0.05 46 1008.8
20260505162033 26 19 3.2 11.3 0.00 0.05 0.05 47 1008.9
20260505161550 26 217 4.8 17.7 0.00 0.05 0.05 51 1008.8
20260505161032 26 70 4.8 17.7 0.00 0.05 0.05 47 1008.9
20260505160535 26 120 4.8 12.9 0.00 0.05 0.05 48 1009.0
20260505153044 25 37 4.8 11.3 0.00 0.05 0.05 50 1009.3
20260505152534 25 326 1.6 11.3 0.00 0.05 0.05 51 1009.3
20260505152031 25 345 3.2 11.3 0.00 0.05 0.05 54 1009.4
20260505151542 24 119 3.2 12.9 0.00 0.05 0.05 53 1009.5
20260505151032 23 160 3.2 12.9 0.00 0.05 0.05 53 1009.6
20260505150532 23 273 4.8 11.3 0.00 0.05 0.05 54 1009.5
20260505140532 21 110 1.6 11.3 0.00 0.05 0.05 65 1010.3
20260505140108 21 252 3.2 11.3 0.00 0.05 0.05 63 1010.4
20260505125032 18 161 1.6 6.4 0.00 0.05 0.05 72 1010.6
20260505124547 18 145 0.0 3.2 0.00 0.05 0.05 75 1010.3
20260505124032 18 115 0.0 3.2 0.00 0.05 0.05 73 1010.4
20260505123531 18 128 0.0 1.6 0.00 0.05 0.05 76 1010.4
20260505123050 17 357 0.0 1.6 0.00 0.05 0.05 76 1010.5
20260505122532 17 0 0.0 1.6 0.00 0.05 0.05 78 1010.5
20260505122033 16 350 0.0 1.6 0.00 0.05 0.05 83 1010.5
20260505121542 16 0 0.0 3.2 0.00 0.05 0.05 84 1010.7
20260505121033 16 247 0.0 9.7 0.00 0.05 0.05 85 1010.6
20260505120533 16 147 0.0 9.7 0.00 0.05 0.05 84 1010.7
20260505120049 15 100 1.6 9.7 0.00 0.05 0.05 86 1010.3
20260505115531 15 52 0.0 1.6 0.00 0.05 0.05 89 1010.2
20260505115032 15 52 0.0 0.0 0.00 0.05 0.05 89 1010.2
20260505114556 14 0 0.0 0.0 0.00 0.05 0.05 92 1010.1
20260505114032 13 0 0.0 0.0 0.00 0.05 0.05 93 1010.1
20260505113531 13 0 0.0 1.6 0.00 0.05 0.05 95 1010.3
20260505113052 12 0 0.0 1.6 0.00 0.05 0.05 94 1010.2
20260505112533 12 0 0.0 1.6 0.00 0.05 0.05 95 1010.2
20260505112032 12 0 0.0 1.6 0.00 0.05 0.05 96 1010.2
20260505111541 11 71 0.0 3.2 0.00 0.05 0.05 96 1010.4
20260505111032 11 0 0.0 6.4 0.00 0.05 0.05 96 1010.4
20260505110533 10 62 1.6 6.4 0.00 0.05 0.05 96 1010.1
20260505102032 10 0 0.0 1.6 0.03 0.05 0.05 95 1009.8
20260505101550 10 0 0.0 1.6 0.03 0.05 0.05 94 1009.7
20260505101032 10 0 0.0 1.6 0.03 0.05 0.05 94 1009.6
20260505100531 10 81 0.0 1.6 0.05 0.05 0.05 94 1009.3
20260505100053 10 0 0.0 4.8 0.05 0.05 0.05 94 1009.5
20260505095531 10 0 1.6 4.8 0.05 0.05 0.05 94 1009.5
20260505095036 10 0 0.0 1.6 0.05 0.05 0.05 94 1009.8
20260505094542 10 0 0.0 1.6 0.05 0.05 0.05 93 1009.6
20260505094032 10 0 0.0 3.2 0.05 0.05 0.05 93 1009.6
20260505093532 10 0 0.0 3.2 0.05 0.05 0.05 93 1009.6
20260505093056 10 186 0.0 1.6 0.05 0.05 0.05 93 1009.6
20260505092532 10 0 0.0 3.2 0.05 0.05 0.05 92 1009.8
20260505092035 10 0 0.0 3.2 0.03 0.03 0.03 92 1010.1
20260505091553 10 338 0.0 3.2 0.03 0.03 0.03 91 1010.2
20260505091034 10 0 0.0 3.2 0.03 0.03 0.03 90 1010.1
20260505090535 10 326 0.0 3.2 0.00 0.00 0.00 89 1010.1
20260505090047 10 274 0.0 3.2 0.00 0.00 0.00 89 1010.1
20260505085535 10 0 0.0 4.8 0.00 0.00 0.00 89 1010.1
20260505085036 9 0 0.0 4.8 0.00 0.00 0.00 89 1010.1
20260505084546 9 0 0.0 4.8 0.00 0.00 0.00 89 1009.9
20260505084033 9 330 1.6 4.8 0.00 0.00 0.00 89 1009.9
20260505083537 9 272 0.0 3.2 0.00 0.00 0.00 89 1009.6
20260505083054 9 0 0.0 3.2 0.00 0.00 0.00 89 1009.6
20260505082535 9 254 0.0 3.2 0.00 0.00 0.00 89 1009.5
20260505082036 9 0 0.0 1.6 0.00 0.00 0.00 89 1009.3
20260505081548 9 0 0.0 1.6 0.00 0.00 0.00 89 1009.3
20260505081038 9 0 0.0 1.6 0.00 0.00 0.00 89 1009.2
20260505080538 9 0 0.0 1.6 0.00 0.00 0.00 89 1009.3
20260505080047 9 0 0.0 1.6 0.00 0.00 0.00 89 1009.3
20260505075535 9 0 0.0 1.6 0.00 0.00 0.00 88 1009.3
20260505075035 9 0 0.0 1.6 0.00 0.00 0.00 88 1009.3
20260505074545 9 0 0.0 1.6 0.00 0.00 0.00 88 1009.3
20260505074035 9 0 0.0 1.6 0.00 0.00 0.00 88 1009.3
20260505073535 9 0 0.0 1.6 0.00 0.00 0.00 88 1009.4
20260505073051 9 279 0.0 1.6 0.00 0.00 0.00 88 1009.3
20260505072534 9 326 0.0 1.6 0.00 0.00 0.00 88 1009.3
20260505072034 9 0 0.0 1.6 0.00 0.00 0.00 87 1009.3
20260505071558 9 0 0.0 1.6 0.00 0.00 0.00 87 1009.3
20260505071035 9 268 0.0 1.6 0.00 0.00 0.00 87 1009.4
20260505070535 9 270 0.0 1.6 0.00 0.00 0.00 87 1009.3
20260505070051 9 0 0.0 1.6 0.00 0.00 0.00 87 1009.3
20260505065534 9 0 0.0 0.0 0.00 0.00 0.00 87 1009.3
20260505065031 9 0 0.0 1.6 0.00 0.00 0.00 87 1009.2
20260505064543 9 0 0.0 1.6 0.00 0.00 0.00 87 1009.3
20260505064037 9 263 0.0 1.6 0.00 0.00 0.00 87 1009.3
20260505063532 9 302 0.0 1.6 0.00 0.00 0.00 87 1009.3
20260505063051 9 274 0.0 1.6 0.00 0.00 0.00 87 1009.5
20260505062535 9 0 0.0 3.2 0.00 0.00 0.00 87 1009.4
20260505062035 9 0 0.0 3.2 0.00 0.00 0.00 87 1009.5
20260505061550 9 0 0.0 3.2 0.00 0.00 0.00 87 1009.5
20260505061031 9 276 0.0 1.6 0.00 0.00 0.00 87 1009.5
20260505060533 9 0 0.0 1.6 0.00 0.00 0.00 87 1009.5
20260505060055 9 0 0.0 3.2 0.00 0.00 0.00 87 1009.4
20260505055537 9 0 0.0 3.2 0.00 0.00 0.00 87 1009.5
20260505055035 9 0 0.0 3.2 0.00 0.00 0.00 87 1009.5
20260505054546 9 326 1.6 3.2 0.00 0.00 0.00 87 1009.4
20260505054033 9 262 0.0 1.6 0.00 0.00 0.00 87 1009.6
20260505053532 9 276 0.0 1.6 0.00 0.00 0.00 87 1009.7
20260505053055 9 1 0.0 1.6 0.00 0.00 0.00 87 1009.5
20260505052534 9 271 0.0 1.6 0.00 0.00 0.00 87 1009.5
20260505052034 9 0 0.0 1.6 0.00 0.00 0.00 86 1009.5
20260505051604 9 271 0.0 1.6 0.00 0.00 0.00 86 1009.5
20260505051032 9 0 0.0 1.6 0.00 0.00 0.00 86 1009.5
20260505050534 9 283 0.0 1.6 0.00 0.00 0.00 86 1009.5
20260505041545 10 262 0.0 1.6 0.00 0.00 0.00 83 1009.4
20260505041034 10 307 0.0 1.6 0.00 0.00 0.00 83 1009.3
20260505040533 10 0 0.0 3.2 0.00 0.00 0.00 83 1009.2
20260505040055 10 0 0.0 3.2 0.00 0.00 0.00 83 1009.2
20260505035534 10 0 0.0 3.2 0.00 0.00 0.00 82 1009.2
20260505035031 10 357 0.0 3.2 0.00 0.00 0.00 82 1009.2
20260505034541 10 259 0.0 3.2 0.00 0.00 0.00 82 1009.3
20260505034032 10 329 0.0 3.2 0.00 0.00 0.00 82 1009.2
20260505033532 11 259 0.0 1.6 0.00 0.00 0.00 82 1009.2
20260505033040 11 354 0.0 1.6 0.00 0.00 0.00 82 1009.3
20260505032534 11 0 0.0 1.6 0.00 0.00 0.00 81 1009.2
20260505032036 11 323 0.0 1.6 0.00 0.00 0.00 81 1009.3
20260505031544 11 0 0.0 1.6 0.00 0.00 0.00 80 1009.2
20260505031032 11 0 0.0 1.6 0.00 0.00 0.00 80 1009.3
20260505030532 11 271 0.0 1.6 0.00 0.00 0.00 80 1009.4
20260505030048 11 330 0.0 3.2 0.00 0.00 0.00 80 1009.4
20260505025533 11 347 0.0 3.2 0.00 0.00 0.00 79 1009.4
20260505025033 11 333 0.0 3.2 0.00 0.00 0.00 79 1009.2